Regional Weather Roundup
Issued by NWS Charleston, WV

Home | Current Version | Previous Version | Graphics & Text | Print | Product List | Glossary On
Versions: 1 2 3 4 5 6 7 8 9 10 11 12 13 14 15 16 17 18 19 20 21 22 23 24 25 26 27
000
ASUS41 KRLX 180910
RWRRLX
West Virginia Regional Weather Roundup
National Weather Service Charleston WV
500 AM EDT FRI AUG 18 2017

Note: "fair" indicates few or no clouds below 12,000 feet with no
significant weather and/or obstructions to visibility.

WVZ003-181000-
Northern Panhandle of West Virginia

CITY           SKY/WX    TMP DP  RH WIND       PRES   REMARKS
WHEELING       CLOUDY    71  69  93 S5        29.85S
$$

WVZ009-181000-
Northwest West Virginia

CITY           SKY/WX    TMP DP  RH WIND       PRES   REMARKS
PARKERSBURG    CLOUDY    73  72  96 S7        29.88S
$$

WVZ006-181000-
Western West Virginia

CITY           SKY/WX    TMP DP  RH WIND       PRES   REMARKS
HUNTINGTON     LGT RAIN  74  72  93 CALM      29.87R
$$

WVZ015-181000-
West Central West Virginia

CITY           SKY/WX    TMP DP  RH WIND       PRES   REMARKS
CHARLESTON     MOCLDY    74  70  87 S5        29.89R
$$

WVZ022-031-181000-
North Central West Virginia

CITY           SKY/WX    TMP DP  RH WIND       PRES   REMARKS
CLARKSBURG     MOCLDY    72  70  93 S3        29.89S
MORGANTOWN     MOCLDY    72  70  93 S3        29.89F
$$

WVZ025-035-042-045-181000-
Southern West Virginia

CITY           SKY/WX    TMP DP  RH WIND       PRES   REMARKS
BECKLEY        PTCLDY    70  67  90 S5        30.00S
LOGAN            N/A     73  72  94 CALM      29.94R
BLUEFIELD      MOCLDY    69  66  90 SW3       30.04R
LEWISBURG      FOG       65  64  99 CALM      30.00R VSB 1/4
$$

WVZ047-181000-
Northern Mountains of West Virginia

CITY           SKY/WX    TMP DP  RH WIND       PRES   REMARKS
ELKINS         PTCLDY    67  64  90 CALM      29.95F
$$

WVZ052-181000-
Eastern Panhandle of West Virginia

CITY           SKY/WX    TMP DP  RH WIND       PRES   REMARKS
MARTINSBURG    PTCLDY    73  71  93 S3        29.85S
PETERSBURG     PTCLDY    70  69  99 CALM      29.89R
$$




USA.gov is the U.S. government's official web portal to all federal, state and local government web resources and services.